N314GT -KLAX

Flight info

Callsign N314GT
Flight time N/A
Altitude VFR
Route
Aircraft C172/L-VGD/C

Departure

Time N/A
Airport -

Arrival

Time 2026-04-21 03:11
Airport Los Angeles International Airport (KLAX)
Time Latitude Longitude Altitude Speed Heading
2026-04-21 02:36 34.05386 -117.59131 930 ft 27 kts 89°
2026-04-21 02:37 34.05387 -117.58912 927 ft 25 kts 90°
2026-04-21 02:37 34.05387 -117.58716 928 ft 22 kts 89°
2026-04-21 02:37 34.05388 -117.58539 927 ft 20 kts 89°
2026-04-21 02:37 34.05387 -117.58372 927 ft 19 kts 90°
2026-04-21 02:38 34.05411 -117.58280 929 ft 0 kts 32°
2026-04-21 02:40 34.05484 -117.58298 931 ft 16 kts 310°
2026-04-21 02:40 34.05499 -117.58514 929 ft 45 kts 270°
2026-04-21 02:40 34.05505 -117.59034 981 ft 73 kts 269°
2026-04-21 02:40 34.05527 -117.59606 1261 ft 65 kts 269°
2026-04-21 02:41 34.05524 -117.60176 1458 ft 71 kts 262°
2026-04-21 02:41 34.05466 -117.60817 1556 ft 87 kts 260°
2026-04-21 02:41 34.05372 -117.61582 1583 ft 94 kts 258°
2026-04-21 02:41 34.05273 -117.62363 1689 ft 94 kts 258°
2026-04-21 02:42 34.05172 -117.63141 1863 ft 91 kts 262°
2026-04-21 02:42 34.05073 -117.63858 2086 ft 82 kts 260°
2026-04-21 02:42 34.04983 -117.64506 2307 ft 76 kts 260°
2026-04-21 02:42 34.04897 -117.65129 2506 ft 75 kts 260°
2026-04-21 02:43 34.04810 -117.65745 2687 ft 75 kts 261°
2026-04-21 02:43 34.04533 -117.66229 2823 ft 83 kts 198°
2026-04-21 02:43 34.03935 -117.66334 2952 ft 90 kts 191°
2026-04-21 02:43 34.03305 -117.66414 3105 ft 94 kts 190°
2026-04-21 02:44 34.02662 -117.66506 3305 ft 91 kts 190°
2026-04-21 02:44 34.02047 -117.66596 3523 ft 86 kts 190°
2026-04-21 02:44 34.01468 -117.66685 3727 ft 82 kts 190°
2026-04-21 02:44 34.00907 -117.66780 3900 ft 81 kts 191°
2026-04-21 02:45 34.00358 -117.66895 4070 ft 79 kts 205°
2026-04-21 02:45 34.00181 -117.67466 4224 ft 81 kts 277°
2026-04-21 02:45 34.00145 -117.68122 4362 ft 79 kts 255°
2026-04-21 02:45 34.00063 -117.68784 4489 ft 85 kts 259°
2026-04-21 02:46 33.99983 -117.69560 4504 ft 101 kts 261°
2026-04-21 02:46 33.99913 -117.70398 4501 ft 100 kts 261°
2026-04-21 02:46 33.99844 -117.71227 4505 ft 101 kts 261°
2026-04-21 02:46 33.99775 -117.72086 4500 ft 105 kts 262°
2026-04-21 02:47 33.99706 -117.72962 4502 ft 105 kts 262°
2026-04-21 02:47 33.99637 -117.73848 4500 ft 106 kts 262°
2026-04-21 02:47 33.99567 -117.74738 4499 ft 107 kts 262°
2026-04-21 02:47 33.99498 -117.75625 4506 ft 106 kts 262°
2026-04-21 02:48 33.99430 -117.76505 4505 ft 105 kts 262°
2026-04-21 02:48 33.99362 -117.77370 4499 ft 103 kts 262°
2026-04-21 02:48 33.99295 -117.78227 4499 ft 103 kts 262°
2026-04-21 02:48 33.99228 -117.79084 4501 ft 103 kts 262°
2026-04-21 02:49 33.99160 -117.79948 4498 ft 104 kts 262°
2026-04-21 02:49 33.99092 -117.80815 4500 ft 104 kts 262°
2026-04-21 02:49 33.99024 -117.81686 4505 ft 105 kts 262°
2026-04-21 02:49 33.98955 -117.82565 4507 ft 105 kts 262°
2026-04-21 02:50 33.98888 -117.83432 4504 ft 105 kts 262°
2026-04-21 02:50 33.98818 -117.84313 4502 ft 105 kts 262°
2026-04-21 02:50 33.98749 -117.85190 4504 ft 105 kts 262°
2026-04-21 02:50 33.98681 -117.86056 4497 ft 103 kts 262°
2026-04-21 02:51 33.98556 -117.86892 4486 ft 101 kts 237°
2026-04-21 02:51 33.98189 -117.87600 4490 ft 100 kts 237°
2026-04-21 02:51 33.97815 -117.88314 4476 ft 101 kts 236°
2026-04-21 02:51 33.97435 -117.89031 4475 ft 102 kts 236°
2026-04-21 02:52 33.96947 -117.89611 4372 ft 109 kts 185°
2026-04-21 02:52 33.96427 -117.89050 4414 ft 105 kts 107°
2026-04-21 02:52 33.96237 -117.88207 4404 ft 101 kts 118°
2026-04-21 02:52 33.95804 -117.87610 4426 ft 93 kts 154°
2026-04-21 02:53 33.95179 -117.87449 4421 ft 93 kts 185°
2026-04-21 02:53 33.94641 -117.87813 4472 ft 92 kts 237°
2026-04-21 02:53 33.94367 -117.88510 4465 ft 97 kts 227°
2026-04-21 02:53 33.93840 -117.89001 4489 ft 97 kts 210°
2026-04-21 02:54 33.93232 -117.89379 4492 ft 100 kts 203°
2026-04-21 02:54 33.92565 -117.89607 4487 ft 101 kts 188°
2026-04-21 02:54 33.91862 -117.89686 4507 ft 100 kts 186°
2026-04-21 02:54 33.91163 -117.89736 4480 ft 103 kts 180°
2026-04-21 02:55 33.90451 -117.89771 4471 ft 102 kts 184°
2026-04-21 02:55 33.89727 -117.89802 4421 ft 105 kts 185°
2026-04-21 02:55 33.88996 -117.89860 4362 ft 101 kts 188°
2026-04-21 02:55 33.88338 -117.89981 4327 ft 93 kts 191°
2026-04-21 02:56 33.87701 -117.90115 4343 ft 95 kts 192°
2026-04-21 02:56 33.86800 -117.91012 4270 ft 108 kts 288°
2026-04-21 02:56 33.87383 -117.91590 4201 ft 117 kts 340°
2026-04-21 02:57 33.88197 -117.91645 4124 ft 121 kts
2026-04-21 02:57 33.88997 -117.91796 3995 ft 119 kts 329°
2026-04-21 02:57 33.89716 -117.92285 3937 ft 118 kts 331°
2026-04-21 02:57 33.90448 -117.92747 3958 ft 117 kts 331°
2026-04-21 02:58 33.91139 -117.93234 4030 ft 112 kts 329°
2026-04-21 02:58 33.91855 -117.93684 3991 ft 118 kts 331°
2026-04-21 02:58 33.92590 -117.94144 3989 ft 120 kts 331°
2026-04-21 02:58 33.93330 -117.94607 3987 ft 120 kts 331°
2026-04-21 02:59 33.94075 -117.95071 3990 ft 121 kts 331°
2026-04-21 02:59 33.94826 -117.95539 3991 ft 122 kts 331°
2026-04-21 02:59 33.95571 -117.96000 3996 ft 122 kts 331°
2026-04-21 02:59 33.96350 -117.96484 3882 ft 129 kts 332°
2026-04-21 03:00 33.97161 -117.96989 3752 ft 132 kts 332°
2026-04-21 03:00 33.97982 -117.97498 3519 ft 133 kts 332°
2026-04-21 03:00 33.98799 -117.98022 3288 ft 132 kts 325°
2026-04-21 03:00 33.99243 -117.98928 3051 ft 130 kts 273°
2026-04-21 03:01 33.99072 -117.99999 2787 ft 129 kts 259°
2026-04-21 03:01 33.98912 -118.01055 2577 ft 127 kts 260°
2026-04-21 03:01 33.98786 -118.02101 2382 ft 127 kts 259°
2026-04-21 03:01 33.98602 -118.03133 2194 ft 125 kts 258°
2026-04-21 03:02 33.98480 -118.04150 2092 ft 120 kts 265°
2026-04-21 03:02 33.98402 -118.05138 1996 ft 117 kts 261°
2026-04-21 03:02 33.98283 -118.06078 1986 ft 110 kts 260°
2026-04-21 03:02 33.98172 -118.06990 1897 ft 113 kts 261°
2026-04-21 03:03 33.98057 -118.07981 1672 ft 123 kts 261°
2026-04-21 03:03 33.97872 -118.08992 1495 ft 120 kts 251°
2026-04-21 03:03 33.97629 -118.09908 1454 ft 113 kts 251°
2026-04-21 03:03 33.97377 -118.10822 1312 ft 116 kts 251°
2026-04-21 03:04 33.97121 -118.11741 1171 ft 114 kts 252°
2026-04-21 03:04 33.96905 -118.12623 1175 ft 106 kts 254°
2026-04-21 03:04 33.96832 -118.13485 1227 ft 102 kts 265°
2026-04-21 03:04 33.96773 -118.14324 1309 ft 100 kts 259°
2026-04-21 03:05 33.96627 -118.15150 1320 ft 102 kts 256°
2026-04-21 03:05 33.96447 -118.15988 1291 ft 106 kts 253°
2026-04-21 03:05 33.96212 -118.16846 1255 ft 112 kts 251°
2026-04-21 03:05 33.95971 -118.17747 1225 ft 114 kts 254°
2026-04-21 03:06 33.95782 -118.18674 1175 ft 113 kts 259°
2026-04-21 03:06 33.95638 -118.19616 1097 ft 115 kts 261°
2026-04-21 03:06 33.95517 -118.20578 1024 ft 119 kts 261°
2026-04-21 03:06 33.95378 -118.21542 1012 ft 115 kts 261°
2026-04-21 03:07 33.95258 -118.22489 1007 ft 114 kts 263°
2026-04-21 03:07 33.95180 -118.23438 1007 ft 114 kts 264°
2026-04-21 03:07 33.95102 -118.24378 989 ft 113 kts 264°
2026-04-21 03:07 33.95017 -118.25316 955 ft 111 kts 264°
2026-04-21 03:08 33.94906 -118.26231 899 ft 111 kts 262°
2026-04-21 03:08 33.94806 -118.27126 930 ft 106 kts 264°
2026-04-21 03:08 33.94730 -118.27999 986 ft 103 kts 264°
2026-04-21 03:08 33.94654 -118.28856 1013 ft 103 kts 264°
2026-04-21 03:09 33.94587 -118.29715 1053 ft 104 kts 265°
2026-04-21 03:09 33.94522 -118.30591 1062 ft 108 kts 262°
2026-04-21 03:09 33.94417 -118.31499 1022 ft 110 kts 263°
2026-04-21 03:09 33.94314 -118.32421 1012 ft 112 kts 265°
2026-04-21 03:10 33.94211 -118.33358 933 ft 116 kts 263°
2026-04-21 03:10 33.94127 -118.34319 815 ft 115 kts 263°
2026-04-21 03:10 33.94035 -118.35266 639 ft 113 kts 264°
2026-04-21 03:10 33.93946 -118.36182 516 ft 109 kts 263°
2026-04-21 03:11 33.93846 -118.37007 358 ft 86 kts 266°
2026-04-21 03:11 33.93794 -118.37618 316 ft 62 kts 263°
2026-04-21 03:11 33.93751 -118.38107 168 ft 59 kts 259°
2026-04-21 03:11 33.93709 -118.38541 120 ft 43 kts 263°
2026-04-21 03:12 33.93673 -118.38886 120 ft 43 kts 263°
2026-04-21 03:12 33.93638 -118.39232 120 ft 41 kts 263°
2026-04-21 03:12 33.93594 -118.39406 118 ft 14 kts 215°
2026-04-21 03:12 33.93541 -118.39371 119 ft 6 kts 176°
2026-04-21 03:13 33.93525 -118.39373 120 ft 0 kts 187°
2026-04-21 03:14 33.93520 -118.39374 120 ft 3 kts 191°
2026-04-21 03:14 33.93491 -118.39382 118 ft 9 kts 197°
2026-04-21 03:14 33.93425 -118.39398 119 ft 9 kts 245°
2026-04-21 03:14 33.93426 -118.39498 120 ft 9 kts 263°
2026-04-21 03:15 33.93398 -118.39543 120 ft 7 kts 138°
2026-04-21 03:15 33.93394 -118.39527 120 ft 0 kts 85°